Location: Unspecified
(58.9933°N, 5.6375°E)
Time: 04:21:17
(UTC+02:00)

Resurs 1-4 Rocket - Visible Passes

Search period start: 02 October 2014 00:00
Search period end: 12 October 2014 00:00
Orbit: 801 x 814 km, 98.3° (Epoch: 30 September)

Date Brightness Start Highest point End Pass type
(mag) Time Alt. Az. Time Alt. Az. Time Alt. Az.
02 Oct 5.0 03:52:55 10° ENE 03:54:40 12° ENE 03:56:24 10° E visible
02 Oct 3.0 05:30:40 10° NNE 05:35:52 50° E 05:41:02 10° S visible
03 Oct 3.6 05:06:23 10° NNE 05:11:16 35° E 05:16:07 10° SSE visible
03 Oct 2.2 06:46:12 10° NNE 06:51:26 58° WNW 06:56:39 10° SW visible
04 Oct 4.2 04:42:13 10° NE 04:46:35 25° E 04:50:55 10° SE visible
04 Oct 2.1 06:21:42 10° NNE 06:27:04 80° WNW 06:32:24 10° SSW visible
05 Oct 4.7 04:18:16 10° NE 04:21:48 18° E 04:25:19 10° SE visible
05 Oct 2.3 05:57:16 10° NNE 06:02:37 74° ESE 06:07:57 10° S visible
06 Oct 4.9 03:54:54 10° NE 03:56:56 12° ENE 03:58:58 10° E visible
06 Oct 2.9 05:32:53 10° NNE 05:38:06 52° E 05:43:18 10° S visible
07 Oct 3.6 05:08:34 10° NNE 05:13:30 36° E 05:18:24 10° SSE visible
07 Oct 2.3 06:48:26 10° NNE 06:53:38 56° WNW 06:58:50 10° SW visible
08 Oct 4.1 04:44:23 10° NNE 04:48:50 26° E 04:53:14 10° SE visible
08 Oct 2.1 06:23:56 10° NNE 06:29:17 77° WNW 06:34:36 10° SSW visible
09 Oct 4.6 04:20:25 10° NE 04:24:04 18° E 04:27:41 10° SE visible
09 Oct 2.3 05:59:28 10° NNE 06:04:51 77° ESE 06:10:11 10° SSW visible
10 Oct 4.9 03:56:56 10° NE 03:59:12 13° ENE 04:01:28 10° ESE visible
10 Oct 2.8 05:35:05 10° NNE 05:40:20 54° E 05:45:33 10° S visible
10 Oct 2.7 07:15:12 10° N 07:20:07 39° WNW 07:25:02 10° SW visible
11 Oct 3.5 05:10:46 10° NNE 05:15:45 38° E 05:20:41 10° SSE visible
11 Oct 2.3 06:50:39 10° NNE 06:55:51 53° WNW 07:01:00 10° SW visible
